Simultaneous Nadir Overpasses (SNOs) Predictions

Prediction of SNOs between GOES-16 and TERRA Satellite Orbit:

Table of predicted SNOs for the next 14.0 days since TLE Epoch: 3/15/2019
Index Date Time (GOES-16) GOES-16 Lat,Lon TERRA Lat,Lon Distance(km) Time Diff (sec)
1 03/17/2019 03:27:20 -0.01, -75.19 0.13, -74.58 70.18 80
2 03/19/2019 03:15:09 -0.00, -75.20 0.74, -71.62 406.52 80
3 03/19/2019 15:36:25 0.00, -75.21 0.33, -76.78 178.71 80
4 03/21/2019 15:26:54 0.00, -75.22 -0.27, -73.82 158.69 80
5 03/22/2019 03:48:19 -0.00, -75.22 -0.80, -79.02 432.08 80
6 03/23/2019 15:14:44 0.00, -75.24 -0.94, -70.88 496.71 80
7 03/24/2019 03:36:08 -0.00, -75.24 -0.19, -76.06 93.90 80
8 03/26/2019 03:21:18 -0.00, -75.26 0.48, -73.12 244.72 80
9 03/26/2019 15:42:34 0.00, -75.28 0.61, -78.28 340.22 80
10 03/28/2019 15:33:03 -0.00, -75.31 0.01, -75.32 1.31 80




NCC Satellite Simultaneous Nadir Overpasses (SNOs) Prediction Service
